Content
SEND FEEDBACK

Daily
Averages
Monthly
Summary
United States of America

LAKE TAHOE, NEVADA


Home > North America > United States > Nevada
Elevation: 6241 feet     Latitude: 38 58N     Longitude: 119 57W

WEATHER
 
SELECT A DAY
Number of Records: 174,348;   Date Range: 1/1/95 - 7/23/14
 
SHARE

PRINT THIS DATA

[ ← Previous Day ]
WEATHER ALMANAC - MARCH 3, 2013
[ Next Day → ]
[ °C ]   °F
Weather ElementAverageHighLow
Temperature37.6 °F43 °F (1:53 am)32 °F (7:21 pm)
Dewpoint31.9 °F34 °F (2:53 pm)28.4 °F (7:21 pm)
Humidity80.5 %93 % (12:34 pm)61 % (1:15 am)
Barometer30.03 in30.11 in (1:15 am)29.98 in (1:53 pm)
Wind Speed2.6 mph12.7 mph (12:53 am)
Wind Gust19.6 mph (12:53 am)
Weather ElementAverage
Visibility8.1 mi
Wind DirectionNE (49.8 °)

Weather ElementTotal
Precipitation0.38 in
Heating Degree Days27.5 (Base 65)
Averaged from 50 records on March 3, 2013
WEATHER CONDITIONS BREAKOUT
WIND DIRECTION BREAKOUT
WEATHER BY HOUR - MARCH 3, 2013
[ °C ]   °F
Local TimeTemperatureDewpointHumidityBarometerVisibilityWind DirectionWind SpeedGust SpeedPrecipitationEventsConditions
12:53 AM42.1 °F32.0 °F67 %30.04 in10.0 miSouth (190°)12.7 mph19.6 mph0.00 inRainLight Rain
1:15 AM42.8 °F30.2 °F61 %30.11 in10.0 miSouth (170°)11.5 mph19.6 mph0.00 inRainLight Rain
1:53 AM43.0 °F30.9 °F62 %30.00 in10.0 miVariable6.9 mph0.00 inOvercast
2:53 AM41.0 °F30.9 °F67 %29.99 in10.0 miSSE (160°)6.9 mph0.00 inRainLight Rain
4:53 AM39.9 °F30.9 °F70 %29.99 in10.0 miSouth (180°)6.9 mph0.00 inRainLight Rain
5:31 AM39.2 °F30.2 °F70 %30.07 in10.0 miSSE (160°)9.2 mph16.1 mph0.00 inRainLight Rain
5:43 AM39.2 °F30.2 °F70 %30.07 in10.0 miSE (140°)5.8 mph0.00 inRainLight Rain
5:53 AM39.0 °F30.9 °F73 %29.99 in10.0 miSE (140°)5.8 mph0.00 inRainLight Rain
6:08 AM39.2 °F30.2 °F70 %30.06 in10.0 miSouth (180°)4.6 mph0.00 inRainLight Rain
6:46 AM39.2 °F30.2 °F70 %30.06 in10.0 miSouth (180°)8.1 mph0.00 inOvercast
6:53 AM39.9 °F30.9 °F70 %30.01 in10.0 miSouth (190°)6.9 mph0.00 inOvercast
7:53 AM39.0 °F32.0 °F76 %30.02 in10.0 miSouth (190°)4.6 mph0.00 inRainLight Rain
8:53 AM39.0 °F33.1 °F79 %30.01 in10.0 miSouth (190°)4.6 mph0.00 inRainLight Rain
9:53 AM39.9 °F33.1 °F77 %30.00 in10.0 miCalm0.00 inRainLight Rain
10:47 AM39.2 °F33.8 °F81 %30.05 in10.0 miCalm0.01 inRainLight Rain
10:48 AM39.9 °F33.1 °F77 %29.99 in10.0 miCalm0.01 inRainLight Rain
10:59 AM37.4 °F33.8 °F87 %30.05 in4.0 miNorth (10°)3.5 mph0.01 inRainLight Rain
11:02 AM37.4 °F33.8 °F87 %30.05 in4.0 miVariable3.5 mph0.01 inRainRain
11:13 AM37.4 °F33.8 °F87 %30.06 in5.0 miCalm0.02 inRainLight Rain
11:30 AM37.4 °F32.0 °F81 %30.05 in4.0 miNNE (20°)3.5 mph0.04 inSnowLight Snow
11:45 AM35.6 °F32.0 °F87 %30.06 in1.8 miCalm0.05 inSnowLight Snow
11:53 AM36.0 °F32.0 °F86 %30.01 in1.5 miCalm0.06 inSnowLight Snow
12:34 PM35.6 °F33.8 °F93 %30.05 in1.5 miCalm0.03 inSnowLight Snow
12:49 PM35.6 °F32.0 °F87 %30.05 in2.5 miCalm0.04 inSnowLight Snow
12:53 PM36.0 °F33.1 °F89 %30.00 in3.0 miCalm0.04 inSnowLight Snow
12:59 PM37.4 °F33.8 °F87 %30.04 in5.0 miCalm0.00 inSnowLight Snow
1:18 PM37.4 °F33.8 °F87 %30.04 in7.0 miCalm0.01 inRainLight Rain
1:36 PM37.4 °F33.8 °F87 %30.04 in10.0 miCalm0.01 inRainLight Rain
1:53 PM39.0 °F33.1 °F79 %29.98 in10.0 miNorth (10°)3.5 mph0.02 inRainLight Rain
2:07 PM39.2 °F33.8 °F81 %30.03 in10.0 miCalm0.00 inRainLight Rain
2:20 PM39.2 °F33.8 °F81 %30.03 in10.0 miNNE (20°)3.5 mph0.00 inRainLight Rain
2:26 PM39.2 °F33.8 °F81 %30.03 in10.0 miCalm0.00 inRainLight Rain
2:34 PM39.2 °F33.8 °F81 %30.04 in10.0 miNorth (10°)3.5 mph0.00 inRainLight Rain
2:53 PM37.9 °F34.0 °F86 %29.99 in10.0 miVariable3.5 mph0.00 inRainLight Rain
3:04 PM37.4 °F33.8 °F87 %30.04 in8.0 miNNE (20°)3.5 mph0.00 inRainLight Rain
3:29 PM37.4 °F33.8 °F87 %30.04 in10.0 miCalm0.01 inRainLight Rain
3:53 PM39.0 °F32.0 °F76 %29.99 in10.0 miSSE (160°)3.5 mph0.01 inRainLight Rain
4:07 PM39.2 °F32.0 °F75 %30.03 in10.0 miCalm0.00 inOvercast
4:53 PM39.0 °F32.0 °F76 %29.98 in10.0 miCalm0.00 inPartly Cloudy
5:53 PM36.0 °F32.0 °F86 %29.99 in10.0 miCalmPartly Cloudy
6:42 PM33.8 °F30.2 °F87 %30.03 in10.0 miCalmPartly Cloudy
7:21 PM32.0 °F28.4 °F87 %30.04 in9.0 miCalmMostly Cloudy
7:39 PM33.8 °F28.4 °F81 %30.05 in9.0 miCalmOvercast
7:53 PM33.1 °F30.0 °F89 %30.02 in9.0 miCalmOvercast
8:53 PM34.0 °F30.9 °F89 %30.03 in6.0 miCalmOvercast
9:53 PM34.0 °F30.0 °F85 %30.03 in8.0 miSouth (170°)3.5 mphOvercast
10:42 PM33.8 °F28.4 °F81 %30.06 in5.0 miCalmOvercast
10:51 PM33.8 °F30.2 °F87 %30.06 in6.0 miCalmOvercast
10:53 PM33.1 °F30.0 °F89 %30.04 in6.0 miCalmOvercast
11:53 PM33.1 °F30.0 °F89 %30.05 in8.0 miCalmOvercast
Hourly data recorded from KTVL, located miles away from Lake Tahoe, Nevada







STORIES FROM OUR PARTNERS